| time (UTC) | temp F | wind direction | speed MPH | gust MPH | rain 1hr in | rain 24hr in | rain mn in | humidity % | barometer mb |
| 20260507054040 | 51 | 11 | 0.0 | 1.0 | 0.00 | 0.00 | 0.00 | 68 | 1018.4 |
| 20260507053520 | 52 | 11 | 0.0 | 2.0 | 0.00 | 0.00 | 0.00 | 67 | 1018.5 |
| 20260507053110 | 52 | 11 | 0.0 | 4.0 | 0.00 | 0.00 | 0.00 | 66 | 1018.3 |
| 20260507052510 | 52 | 11 | 0.0 | 4.0 | 0.00 | 0.00 | 0.00 | 65 | 1018.4 |
| 20260507052042 | 52 | 12 | 0.0 | 2.0 | 0.00 | 0.00 | 0.00 | 65 | 1018.4 |
| 20260507051606 | 52 | 12 | 0.0 | 1.0 | 0.00 | 0.00 | 0.00 | 65 | 1018.3 |
| 20260507051502 | 52 | 12 | 0.0 | 1.0 | 0.00 | 0.00 | 0.00 | 65 | 1018.3 |
| 20260507051025 | 52 | 12 | 0.0 | 1.0 | 0.00 | 0.00 | 0.00 | 65 | 1018.3 |
| 20260507050559 | 52 | 12 | 0.0 | 1.0 | 0.00 | 0.00 | 0.00 | 64 | 1018.4 |
| 20260507050501 | 52 | 12 | 0.0 | 1.0 | 0.00 | 0.00 | 0.00 | 64 | 1018.4 |
| 20260507050038 | 52 | 12 | 0.0 | 2.0 | 0.00 | 0.00 | 0.00 | 64 | 1018.3 |
| 20260507045512 | 52 | 12 | 0.0 | 2.0 | 0.00 | 0.00 | 0.00 | 64 | 1018.2 |
| 20260507045042 | 52 | 12 | 0.0 | 2.0 | 0.00 | 0.00 | 0.00 | 65 | 1018.2 |
| 20260507044527 | 52 | 12 | 1.0 | 2.0 | 0.00 | 0.00 | 0.00 | 65 | 1018.3 |
| 20260507044056 | 51 | 12 | 1.0 | 4.0 | 0.00 | 0.00 | 0.00 | 66 | 1018.3 |
| 20260507043536 | 52 | 12 | 0.0 | 5.0 | 0.00 | 0.00 | 0.00 | 66 | 1018.3 |
| 20260507043056 | 52 | 12 | 1.0 | 5.0 | 0.00 | 0.00 | 0.00 | 65 | 1018.3 |
| 20260507042524 | 53 | 16 | 0.0 | 0.0 | 0.00 | 0.00 | 0.00 | 62 | 1018.3 |
| 20260507042056 | 53 | 16 | 0.0 | 0.0 | 0.00 | 0.00 | 0.00 | 60 | 1018.3 |
| 20260507041532 | 53 | 16 | 0.0 | 0.0 | 0.00 | 0.00 | 0.00 | 60 | 1018.3 |
| 20260507041103 | 53 | 16 | 0.0 | 0.0 | 0.00 | 0.00 | 0.00 | 60 | 1018.3 |
| 20260507041006 | 53 | 16 | 0.0 | 0.0 | 0.00 | 0.00 | 0.00 | 60 | 1018.3 |
| 20260507040538 | 53 | 16 | 0.0 | 4.0 | 0.00 | 0.00 | 0.00 | 59 | 1018.3 |
| 20260507040014 | 53 | 16 | 0.0 | 4.0 | 0.00 | 0.00 | 0.00 | 60 | 1018.4 |
| 20260507035552 | 54 | 16 | 0.0 | 2.0 | 0.00 | 0.00 | 0.00 | 60 | 1018.3 |
| 20260507035012 | 54 | 16 | 0.0 | 0.0 | 0.00 | 0.00 | 0.00 | 60 | 1018.2 |
| 20260507034538 | 54 | 16 | 0.0 | 2.0 | 0.00 | 0.00 | 0.00 | 60 | 1018.2 |
| 20260507034012 | 54 | 16 | 0.0 | 2.0 | 0.00 | 0.00 | 0.00 | 59 | 1018.1 |
| 20260507033547 | 55 | 16 | 0.0 | 4.0 | 0.00 | 0.00 | 0.00 | 59 | 1017.9 |
| 20260507033015 | 55 | 16 | 0.0 | 4.0 | 0.00 | 0.00 | 0.00 | 59 | 1017.9 |
| 20260507032533 | 55 | 16 | 0.0 | 2.0 | 0.00 | 0.00 | 0.00 | 58 | 1017.8 |
| 20260507032052 | 55 | 16 | 0.0 | 2.0 | 0.00 | 0.00 | 0.00 | 58 | 1017.6 |
| 20260507031534 | 55 | 16 | 0.0 | 2.0 | 0.00 | 0.00 | 0.00 | 58 | 1017.7 |
| 20260507031048 | 55 | 16 | 0.0 | 2.0 | 0.00 | 0.00 | 0.00 | 58 | 1017.8 |
| 20260507030508 | 55 | 16 | 1.0 | 2.0 | 0.00 | 0.00 | 0.00 | 58 | 1017.7 |
| 20260507030029 | 55 | 16 | 1.0 | 3.0 | 0.00 | 0.00 | 0.00 | 58 | 1017.7 |
| 20260507025505 | 55 | 16 | 1.0 | 3.0 | 0.00 | 0.00 | 0.00 | 58 | 1017.7 |
| 20260507025028 | 55 | 16 | 0.0 | 2.0 | 0.00 | 0.00 | 0.00 | 58 | 1017.6 |
| 20260507024603 | 56 | 16 | 0.0 | 2.0 | 0.00 | 0.00 | 0.00 | 58 | 1017.6 |
| 20260507024035 | 56 | 16 | 0.0 | 4.0 | 0.00 | 0.00 | 0.00 | 58 | 1017.6 |
| 20260507023514 | 56 | 16 | 1.0 | 3.0 | 0.00 | 0.00 | 0.00 | 58 | 1017.6 |
| 20260507023036 | 56 | 16 | 1.0 | 4.0 | 0.00 | 0.00 | 0.00 | 58 | 1017.6 |
| 20260507022554 | 56 | 16 | 1.0 | 5.0 | 0.00 | 0.00 | 0.00 | 58 | 1017.5 |
| 20260507022028 | 56 | 16 | 1.0 | 5.0 | 0.00 | 0.00 | 0.00 | 58 | 1017.5 |
| 20260507021510 | 56 | 16 | 2.0 | 5.0 | 0.00 | 0.00 | 0.00 | 57 | 1017.5 |
| 20260507021033 | 56 | 18 | 2.0 | 3.0 | 0.00 | 0.00 | 0.00 | 57 | 1017.4 |
| 20260507020553 | 56 | 18 | 2.0 | 3.0 | 0.00 | 0.00 | 0.00 | 57 | 1017.3 |
| 20260507020026 | 56 | 18 | 1.0 | 5.0 | 0.00 | 0.00 | 0.00 | 57 | 1017.3 |
| 20260507015553 | 57 | 18 | 1.0 | 5.0 | 0.00 | 0.00 | 0.00 | 56 | 1017.3 |
| 20260507015036 | 57 | 19 | 1.0 | 5.0 | 0.00 | 0.00 | 0.00 | 56 | 1017.1 |
| 20260507014607 | 57 | 19 | 2.0 | 6.0 | 0.00 | 0.00 | 0.00 | 55 | 1017.1 |
| 20260507014022 | 57 | 24 | 2.0 | 6.0 | 0.00 | 0.00 | 0.00 | 54 | 1017.0 |
| 20260507013558 | 58 | 30 | 2.0 | 6.0 | 0.00 | 0.00 | 0.00 | 54 | 1016.9 |
| 20260507013032 | 58 | 35 | 1.0 | 5.0 | 0.00 | 0.00 | 0.00 | 52 | 1016.9 |
| 20260507012509 | 58 | 32 | 1.0 | 3.0 | 0.00 | 0.00 | 0.00 | 52 | 1016.8 |
| 20260507012044 | 59 | 32 | 1.0 | 4.0 | 0.00 | 0.00 | 0.00 | 52 | 1016.8 |
| 20260507011528 | 59 | 32 | 0.0 | 1.0 | 0.00 | 0.00 | 0.00 | 52 | 1016.8 |
| 20260507011047 | 59 | 32 | 0.0 | 1.0 | 0.00 | 0.00 | 0.00 | 52 | 1016.7 |
| 20260507010506 | 60 | 32 | 0.0 | 1.0 | 0.00 | 0.00 | 0.00 | 51 | 1016.6 |
| 20260507010028 | 60 | 32 | 0.0 | 5.0 | 0.00 | 0.00 | 0.00 | 51 | 1016.6 |
| 20260507005505 | 60 | 32 | 0.0 | 6.0 | 0.00 | 0.00 | 0.00 | 50 | 1016.5 |
| 20260507005045 | 61 | 38 | 0.0 | 5.0 | 0.00 | 0.00 | 0.00 | 50 | 1016.5 |
| 20260507004535 | 61 | 8 | 0.0 | 5.0 | 0.00 | 0.00 | 0.00 | 49 | 1016.5 |
| 20260507004056 | 61 | 8 | 1.0 | 5.0 | 0.00 | 0.00 | 0.00 | 49 | 1016.4 |
| 20260507003535 | 62 | 26 | 0.0 | 3.0 | 0.00 | 0.00 | 0.00 | 48 | 1016.4 |
| 20260507003014 | 62 | 26 | 1.0 | 4.0 | 0.00 | 0.00 | 0.00 | 48 | 1016.3 |
| 20260507002547 | 62 | 26 | 1.0 | 6.0 | 0.00 | 0.00 | 0.00 | 48 | 1016.3 |
| 20260507002030 | 62 | 27 | 1.0 | 6.0 | 0.00 | 0.00 | 0.00 | 48 | 1016.1 |
| 20260507001604 | 62 | 22 | 0.0 | 6.0 | 0.00 | 0.00 | 0.00 | 49 | 1016.1 |
| 20260507001508 | 63 | 23 | 0.0 | 6.0 | 0.00 | 0.00 | 0.00 | 48 | 1016.2 |
| 20260507001039 | 63 | 23 | 2.0 | 6.0 | 0.00 | 0.00 | 0.00 | 46 | 1016.2 |
| 20260507000520 | 63 | 53 | 1.0 | 8.0 | 0.00 | 0.00 | 0.00 | 46 | 1016.1 |
| 20260507000043 | 63 | 85 | 2.0 | 8.0 | 0.00 | 0.00 | 0.00 | 46 | 1016.1 |
| 20260506235508 | 63 | 85 | 4.0 | 8.0 | 0.00 | 0.00 | 0.00 | 45 | 1016.2 |
| 20260506235037 | 63 | 63 | 2.0 | 7.0 | 0.00 | 0.00 | 0.00 | 45 | 1016.2 |
| 20260506234517 | 63 | 346 | 1.0 | 7.0 | 0.00 | 0.00 | 0.00 | 45 | 1016.1 |
| 20260506234058 | 63 | 35 | 1.0 | 5.0 | 0.00 | 0.00 | 0.00 | 45 | 1016.1 |
| 20260506233516 | 63 | 31 | 2.0 | 5.0 | 0.00 | 0.00 | 0.00 | 45 | 1016.0 |
| 20260506233037 | 63 | 29 | 2.0 | 10.0 | 0.00 | 0.00 | 0.00 | 44 | 1016.1 |
| 20260506232557 | 63 | 44 | 2.0 | 10.0 | 0.00 | 0.00 | 0.00 | 44 | 1016.0 |
| 20260506232505 | 63 | 39 | 2.0 | 10.0 | 0.00 | 0.00 | 0.00 | 45 | 1016.0 |
| 20260506232033 | 64 | 36 | 3.0 | 8.0 | 0.00 | 0.00 | 0.00 | 45 | 1015.8 |
| 20260506231512 | 64 | 35 | 2.0 | 11.0 | 0.00 | 0.00 | 0.00 | 45 | 1015.8 |
| 20260506231052 | 64 | 21 | 3.0 | 11.0 | 0.00 | 0.00 | 0.00 | 44 | 1015.7 |
| 20260506230511 | 64 | 60 | 3.0 | 12.0 | 0.00 | 0.00 | 0.00 | 46 | 1015.6 |
| 20260506230043 | 64 | 39 | 1.0 | 8.0 | 0.00 | 0.00 | 0.00 | 46 | 1015.5 |
| 20260506225526 | 63 | 14 | 1.0 | 6.0 | 0.00 | 0.00 | 0.00 | 46 | 1015.6 |
| 20260506225008 | 63 | 15 | 3.0 | 7.0 | 0.00 | 0.00 | 0.00 | 46 | 1015.5 |
| 20260506224533 | 63 | 331 | 3.0 | 7.0 | 0.00 | 0.00 | 0.00 | 47 | 1015.5 |
| 20260506224045 | 63 | 32 | 2.0 | 7.0 | 0.00 | 0.00 | 0.00 | 46 | 1015.5 |
| 20260506223512 | 63 | 340 | 3.0 | 6.0 | 0.00 | 0.00 | 0.00 | 46 | 1015.4 |
| 20260506223040 | 63 | 7 | 1.0 | 7.0 | 0.00 | 0.00 | 0.00 | 47 | 1015.4 |
| 20260506222521 | 63 | 38 | 1.0 | 14.0 | 0.00 | 0.00 | 0.00 | 46 | 1015.3 |
| 20260506222059 | 63 | 58 | 4.0 | 14.0 | 0.00 | 0.00 | 0.00 | 46 | 1015.3 |
| 20260506221518 | 63 | 35 | 2.0 | 11.0 | 0.00 | 0.00 | 0.00 | 48 | 1015.3 |
| 20260506221041 | 63 | 36 | 2.0 | 5.0 | 0.00 | 0.00 | 0.00 | 47 | 1015.2 |
| 20260506220517 | 63 | 19 | 2.0 | 12.0 | 0.00 | 0.00 | 0.00 | 45 | 1015.2 |
| 20260506220056 | 63 | 52 | 3.0 | 12.0 | 0.00 | 0.00 | 0.00 | 46 | 1015.3 |
| 20260506215517 | 63 | 23 | 3.0 | 9.0 | 0.00 | 0.00 | 0.00 | 47 | 1015.3 |
| 20260506215053 | 63 | 12 | 3.0 | 12.0 | 0.00 | 0.00 | 0.00 | 48 | 1015.2 |
| 20260506214509 | 63 | 4 | 6.0 | 12.0 | 0.00 | 0.00 | 0.00 | 46 | 1015.3 |
| 20260506214033 | 63 | 350 | 5.0 | 10.0 | 0.00 | 0.00 | 0.00 | 47 | 1015.3 |
| 20260506213512 | 63 | 331 | 4.0 | 13.0 | 0.00 | 0.00 | 0.00 | 46 | 1015.2 |
| 20260506213045 | 63 | 35 | 3.0 | 13.0 | 0.00 | 0.00 | 0.00 | 47 | 1015.2 |
| 20260506212559 | 63 | 350 | 4.0 | 10.0 | 0.00 | 0.00 | 0.00 | 48 | 1015.2 |
| 20260506212503 | 63 | 332 | 5.0 | 10.0 | 0.00 | 0.00 | 0.00 | 47 | 1015.2 |
| 20260506212040 | 64 | 344 | 2.0 | 6.0 | 0.00 | 0.00 | 0.00 | 51 | 1015.3 |
| 20260506211606 | 63 | 28 | 2.0 | 6.0 | 0.00 | 0.00 | 0.00 | 48 | 1015.4 |
| 20260506211502 | 63 | 35 | 2.0 | 6.0 | 0.00 | 0.00 | 0.00 | 48 | 1015.5 |
| 20260506211017 | 64 | 45 | 3.0 | 7.0 | 0.00 | 0.00 | 0.00 | 48 | 1015.5 |
| 20260506210540 | 64 | 69 | 1.0 | 9.0 | 0.00 | 0.00 | 0.00 | 50 | 1015.5 |
| 20260506210016 | 64 | 41 | 3.0 | 8.0 | 0.00 | 0.00 | 0.00 | 48 | 1015.6 |
| 20260506205534 | 63 | 36 | 3.0 | 8.0 | 0.00 | 0.00 | 0.00 | 50 | 1015.6 |
| 20260506205013 | 63 | 35 | 3.0 | 9.0 | 0.00 | 0.00 | 0.00 | 48 | 1015.8 |
| 20260506204550 | 63 | 350 | 2.0 | 9.0 | 0.00 | 0.00 | 0.00 | 49 | 1015.8 |
| 20260506204029 | 63 | 63 | 2.0 | 8.0 | 0.00 | 0.00 | 0.00 | 49 | 1015.9 |
| 20260506203548 | 63 | 58 | 3.0 | 11.0 | 0.00 | 0.00 | 0.00 | 48 | 1015.9 |
| 20260506203015 | 63 | 78 | 2.0 | 11.0 | 0.00 | 0.00 | 0.00 | 50 | 1016.0 |
| 20260506202541 | 62 | 15 | 3.0 | 7.0 | 0.00 | 0.00 | 0.00 | 48 | 1016.0 |
| 20260506202007 | 62 | 21 | 3.0 | 8.0 | 0.00 | 0.00 | 0.00 | 48 | 1016.1 |
| 20260506201529 | 63 | 339 | 3.0 | 8.0 | 0.00 | 0.00 | 0.00 | 48 | 1016.0 |
| 20260506201044 | 63 | 13 | 3.0 | 8.0 | 0.00 | 0.00 | 0.00 | 49 | 1016.1 |
| 20260506200521 | 63 | 56 | 3.0 | 9.0 | 0.00 | 0.00 | 0.00 | 48 | 1016.1 |
| 20260506200048 | 63 | 31 | 2.0 | 10.0 | 0.00 | 0.00 | 0.00 | 52 | 1016.1 |
| 20260506195519 | 62 | 57 | 3.0 | 10.0 | 0.00 | 0.00 | 0.00 | 52 | 1016.3 |
| 20260506195055 | 62 | 10 | 2.0 | 8.0 | 0.00 | 0.00 | 0.00 | 51 | 1016.2 |
| 20260506194528 | 62 | 340 | 5.0 | 10.0 | 0.00 | 0.00 | 0.00 | 49 | 1016.3 |
| 20260506194101 | 62 | 33 | 3.0 | 10.0 | 0.00 | 0.00 | 0.00 | 51 | 1016.3 |
| 20260506194005 | 62 | 28 | 3.0 | 10.0 | 0.00 | 0.00 | 0.00 | 52 | 1016.3 |
| 20260506193547 | 61 | 36 | 2.0 | 9.0 | 0.00 | 0.00 | 0.00 | 52 | 1016.3 |
| 20260506193009 | 61 | 133 | 4.0 | 9.0 | 0.00 | 0.00 | 0.00 | 53 | 1016.5 |
| 20260506192543 | 61 | 22 | 2.0 | 6.0 | 0.00 | 0.00 | 0.00 | 52 | 1016.6 |
| 20260506192054 | 61 | 355 | 4.0 | 6.0 | 0.00 | 0.00 | 0.00 | 51 | 1016.7 |
| 20260506191537 | 61 | 47 | 1.0 | 6.0 | 0.00 | 0.00 | 0.00 | 53 | 1016.8 |
| 20260506191101 | 62 | 350 | 2.0 | 7.0 | 0.00 | 0.00 | 0.00 | 52 | 1016.7 |
| 20260506190533 | 62 | 53 | 4.0 | 8.0 | 0.00 | 0.00 | 0.00 | 50 | 1016.7 |
| 20260506190021 | 62 | 56 | 3.0 | 8.0 | 0.00 | 0.00 | 0.00 | 51 | 1016.8 |
| 20260506185549 | 62 | 10 | 4.0 | 9.0 | 0.00 | 0.00 | 0.00 | 51 | 1016.7 |
| 20260506185028 | 62 | 97 | 4.0 | 11.0 | 0.00 | 0.00 | 0.00 | 51 | 1016.8 |
| 20260506184553 | 62 | 16 | 4.0 | 11.0 | 0.00 | 0.00 | 0.00 | 52 | 1016.8 |
| 20260506184031 | 61 | 74 | 3.0 | 8.0 | 0.00 | 0.00 | 0.00 | 53 | 1016.9 |
| 20260506183514 | 61 | 355 | 1.0 | 7.0 | 0.00 | 0.00 | 0.00 | 54 | 1017.2 |
| 20260506183053 | 61 | 19 | 2.0 | 9.0 | 0.00 | 0.00 | 0.00 | 54 | 1017.2 |
| 20260506182527 | 61 | 7 | 1.0 | 10.0 | 0.00 | 0.00 | 0.00 | 54 | 1017.3 |
| 20260506182059 | 61 | 33 | 4.0 | 9.0 | 0.00 | 0.00 | 0.00 | 52 | 1017.3 |
| 20260506182002 | 61 | 143 | 3.0 | 9.0 | 0.00 | 0.00 | 0.00 | 54 | 1017.4 |
| 20260506181544 | 61 | 25 | 4.0 | 9.0 | 0.00 | 0.00 | 0.00 | 53 | 1017.3 |
| 20260506181019 | 61 | 18 | 4.0 | 9.0 | 0.00 | 0.00 | 0.00 | 54 | 1017.2 |
| 20260506180553 | 61 | 93 | 3.0 | 11.0 | 0.00 | 0.00 | 0.00 | 53 | 1017.2 |
| 20260506180031 | 61 | 71 | 4.0 | 11.0 | 0.00 | 0.00 | 0.00 | 55 | 1017.4 |
| 20260506175515 | 61 | 96 | 3.0 | 12.0 | 0.00 | 0.00 | 0.00 | 54 | 1017.4 |
| 20260506175043 | 61 | 17 | 4.0 | 12.0 | 0.00 | 0.00 | 0.00 | 56 | 1017.4 |
| 20260506174519 | 61 | 44 | 1.0 | 10.0 | 0.00 | 0.00 | 0.00 | 57 | 1017.4 |
| 20260506174048 | 60 | 32 | 4.0 | 10.0 | 0.00 | 0.00 | 0.00 | 55 | 1017.6 |
| 20260506173528 | 60 | 33 | 4.0 | 11.0 | 0.00 | 0.00 | 0.00 | 56 | 1017.9 |
| 20260506173133 | 60 | 355 | 4.0 | 11.0 | 0.00 | 0.00 | 0.00 | 56 | 1018.2 |
| 20260506172533 | 60 | 104 | 3.0 | 10.0 | 0.00 | 0.00 | 0.00 | 58 | 1018.4 |
| 20260506172009 | 59 | 63 | 4.0 | 9.0 | 0.00 | 0.00 | 0.00 | 58 | 1018.5 |
| 20260506171537 | 59 | 34 | 2.0 | 9.0 | 0.00 | 0.00 | 0.00 | 58 | 1018.7 |
| 20260506171015 | 59 | 360 | 1.0 | 11.0 | 0.00 | 0.00 | 0.00 | 59 | 1018.7 |
| 20260506170550 | 59 | 27 | 4.0 | 11.0 | 0.00 | 0.00 | 0.00 | 58 | 1018.7 |
| 20260506170024 | 58 | 12 | 2.0 | 8.0 | 0.00 | 0.00 | 0.00 | 58 | 1018.7 |
| 20260506165557 | 58 | 94 | 3.0 | 8.0 | 0.00 | 0.00 | 0.00 | 61 | 1018.6 |
| 20260506165017 | 57 | 68 | 3.0 | 8.0 | 0.00 | 0.00 | 0.00 | 61 | 1018.6 |
| 20260506164539 | 57 | 350 | 4.0 | 9.0 | 0.00 | 0.00 | 0.00 | 60 | 1018.4 |
| 20260506164023 | 57 | 6 | 2.0 | 9.0 | 0.00 | 0.00 | 0.00 | 59 | 1018.4 |
| 20260506163555 | 58 | 6 | 3.0 | 8.0 | 0.00 | 0.00 | 0.00 | 59 | 1018.4 |
| 20260506163038 | 58 | 5 | 3.0 | 7.0 | 0.00 | 0.00 | 0.00 | 59 | 1018.4 |
| 20260506162519 | 58 | 38 | 2.0 | 8.0 | 0.00 | 0.00 | 0.00 | 59 | 1018.5 |
| 20260506162050 | 58 | 32 | 3.0 | 10.0 | 0.00 | 0.00 | 0.00 | 59 | 1018.4 |
| 20260506161533 | 58 | 54 | 3.0 | 9.0 | 0.00 | 0.00 | 0.00 | 59 | 1018.4 |
| 20260506161004 | 57 | 85 | 2.0 | 7.0 | 0.00 | 0.00 | 0.00 | 59 | 1018.3 |
| 20260506160545 | 57 | 56 | 2.0 | 7.0 | 0.00 | 0.00 | 0.00 | 59 | 1018.3 |
| 20260506160025 | 57 | 335 | 2.0 | 8.0 | 0.00 | 0.00 | 0.00 | 60 | 1018.1 |
| 20260506155555 | 57 | 20 | 3.0 | 8.0 | 0.00 | 0.00 | 0.00 | 60 | 1018.1 |
| 20260506155032 | 57 | 31 | 1.0 | 10.0 | 0.00 | 0.00 | 0.00 | 62 | 1017.8 |
| 20260506154504 | 56 | 47 | 3.0 | 10.0 | 0.00 | 0.00 | 0.00 | 61 | 1017.7 |
| 20260506154035 | 56 | 61 | 3.0 | 10.0 | 0.00 | 0.00 | 0.00 | 62 | 1017.4 |
| 20260506153518 | 55 | 60 | 5.0 | 12.0 | 0.00 | 0.00 | 0.00 | 63 | 1017.2 |
| 20260506153045 | 55 | 56 | 3.0 | 13.0 | 0.00 | 0.00 | 0.00 | 65 | 1017.1 |
| 20260506152521 | 54 | 114 | 5.0 | 13.0 | 0.00 | 0.00 | 0.00 | 65 | 1017.1 |
| 20260506152049 | 54 | 71 | 5.0 | 12.0 | 0.00 | 0.00 | 0.00 | 65 | 1016.9 |
| 20260506151523 | 54 | 58 | 3.0 | 10.0 | 0.00 | 0.00 | 0.00 | 66 | 1016.7 |
| 20260506151045 | 53 | 29 | 4.0 | 8.0 | 0.00 | 0.00 | 0.00 | 67 | 1016.8 |
| 20260506150509 | 53 | 67 | 3.0 | 8.0 | 0.00 | 0.00 | 0.00 | 69 | 1016.9 |
| 20260506150043 | 53 | 68 | 2.0 | 7.0 | 0.00 | 0.00 | 0.00 | 69 | 1017.1 |
| 20260506145505 | 53 | 63 | 3.0 | 11.0 | 0.00 | 0.00 | 0.00 | 68 | 1017.2 |
| 20260506145027 | 53 | 8 | 5.0 | 11.0 | 0.00 | 0.00 | 0.00 | 68 | 1017.1 |
| 20260506144608 | 53 | 8 | 3.0 | 11.0 | 0.00 | 0.00 | 0.00 | 69 | 1017.0 |
| 20260506144510 | 53 | 40 | 3.0 | 11.0 | 0.00 | 0.00 | 0.00 | 69 | 1017.0 |
| 20260506144041 | 52 | 44 | 3.0 | 10.0 | 0.00 | 0.00 | 0.00 | 70 | 1016.9 |
| 20260506143557 | 52 | 355 | 4.0 | 10.0 | 0.00 | 0.00 | 0.00 | 70 | 1016.9 |
| 20260506143026 | 52 | 46 | 4.0 | 11.0 | 0.00 | 0.00 | 0.00 | 71 | 1016.8 |
| 20260506142558 | 51 | 51 | 5.0 | 11.0 | 0.00 | 0.00 | 0.00 | 71 | 1016.6 |
| 20260506142503 | 51 | 59 | 5.0 | 11.0 | 0.00 | 0.00 | 0.00 | 71 | 1016.6 |
| 20260506142020 | 51 | 50 | 2.0 | 9.0 | 0.00 | 0.00 | 0.00 | 73 | 1016.7 |
| 20260506141551 | 51 | 39 | 1.0 | 7.0 | 0.00 | 0.00 | 0.00 | 73 | 1016.8 |
| 20260506141029 | 51 | 46 | 3.0 | 10.0 | 0.00 | 0.00 | 0.00 | 72 | 1016.9 |
| 20260506140512 | 51 | 73 | 2.0 | 7.0 | 0.00 | 0.00 | 0.00 | 73 | 1017.1 |
| 20260506140031 | 50 | 48 | 2.0 | 8.0 | 0.00 | 0.00 | 0.00 | 74 | 1017.2 |
| 20260506135544 | 50 | 54 | 1.0 | 8.0 | 0.00 | 0.00 | 0.00 | 74 | 1017.1 |
| 20260506135012 | 50 | 41 | 1.0 | 7.0 | 0.00 | 0.00 | 0.00 | 74 | 1017.0 |
| 20260506134542 | 50 | 324 | 1.0 | 8.0 | 0.00 | 0.00 | 0.00 | 75 | 1017.0 |
| 20260506134017 | 50 | 48 | 3.0 | 8.0 | 0.00 | 0.00 | 0.00 | 74 | 1016.9 |
| 20260506133549 | 49 | 37 | 3.0 | 12.0 | 0.00 | 0.00 | 0.00 | 75 | 1016.8 |
| 20260506133027 | 49 | 60 | 3.0 | 12.0 | 0.00 | 0.00 | 0.00 | 75 | 1017.0 |
| 20260506132506 | 49 | 71 | 3.0 | 10.0 | 0.00 | 0.00 | 0.00 | 76 | 1017.0 |
| 20260506132043 | 49 | 18 | 4.0 | 9.0 | 0.00 | 0.00 | 0.00 | 77 | 1017.1 |
| 20260506131525 | 49 | 6 | 4.0 | 10.0 | 0.00 | 0.00 | 0.00 | 77 | 1017.1 |
| 20260506131101 | 49 | 66 | 1.0 | 10.0 | 0.00 | 0.00 | 0.00 | 79 | 1016.8 |
| 20260506131002 | 49 | 67 | 0.0 | 10.0 | 0.00 | 0.00 | 0.00 | 79 | 1016.9 |
| 20260506130535 | 49 | 345 | 1.0 | 10.0 | 0.00 | 0.00 | 0.00 | 80 | 1017.0 |
| 20260506130006 | 48 | 34 | 1.0 | 9.0 | 0.00 | 0.00 | 0.00 | 80 | 1017.0 |
| 20260506125546 | 48 | 46 | 3.0 | 9.0 | 0.00 | 0.00 | 0.00 | 80 | 1016.9 |
| 20260506125020 | 48 | 44 | 3.0 | 8.0 | 0.00 | 0.00 | 0.00 | 81 | 1016.9 |
| 20260506124557 | 48 | 50 | 4.0 | 12.0 | 0.00 | 0.00 | 0.00 | 81 | 1016.9 |
| 20260506124019 | 48 | 21 | 3.0 | 12.0 | 0.00 | 0.00 | 0.00 | 81 | 1016.9 |
| 20260506123553 | 48 | 39 | 3.0 | 7.0 | 0.00 | 0.00 | 0.00 | 82 | 1016.7 |
| 20260506123035 | 48 | 350 | 3.0 | 7.0 | 0.00 | 0.00 | 0.00 | 81 | 1016.6 |
| 20260506122517 | 48 | 19 | 2.0 | 7.0 | 0.00 | 0.00 | 0.00 | 81 | 1016.4 |
| 20260506122057 | 48 | 360 | 3.0 | 8.0 | 0.00 | 0.00 | 0.00 | 81 | 1016.3 |
| 20260506121536 | 48 | 53 | 3.0 | 8.0 | 0.00 | 0.00 | 0.00 | 82 | 1016.2 |
| 20260506121014 | 48 | 56 | 2.0 | 12.0 | 0.00 | 0.00 | 0.00 | 82 | 1016.0 |
| 20260506120553 | 47 | 61 | 3.0 | 12.0 | 0.00 | 0.00 | 0.00 | 83 | 1016.2 |
| 20260506120033 | 47 | 12 | 2.0 | 8.0 | 0.00 | 0.00 | 0.00 | 83 | 1016.2 |
| 20260506115032 | 47 | 360 | 4.0 | 11.0 | 0.00 | 0.00 | 0.00 | 83 | 1016.4 |
| 20260506114552 | 48 | 335 | 5.0 | 11.0 | 0.00 | 0.00 | 0.00 | 83 | 1016.3 |
| 20260506114014 | 48 | 350 | 5.0 | 8.0 | 0.00 | 0.00 | 0.00 | 82 | 1016.4 |
| 20260506113550 | 48 | 360 | 2.0 | 8.0 | 0.00 | 0.00 | 0.00 | 82 | 1016.5 |
| 20260506113033 | 48 | 341 | 3.0 | 9.0 | 0.00 | 0.00 | 0.00 | 82 | 1016.5 |
| 20260506112551 | 48 | 350 | 5.0 | 9.0 | 0.00 | 0.00 | 0.00 | 82 | 1016.4 |
| 20260506112034 | 48 | 341 | 4.0 | 7.0 | 0.00 | 0.00 | 0.00 | 82 | 1016.5 |
| 20260506111559 | 48 | 350 | 3.0 | 8.0 | 0.00 | 0.00 | 0.00 | 82 | 1016.5 |
| 20260506111020 | 48 | 360 | 3.0 | 9.0 | 0.00 | 0.00 | 0.00 | 81 | 1016.2 |
| 20260506110558 | 48 | 350 | 3.0 | 9.0 | 0.00 | 0.00 | 0.00 | 81 | 1016.2 |
| 20260506110502 | 48 | 350 | 4.0 | 9.0 | 0.00 | 0.00 | 0.00 | 81 | 1016.1 |
| 20260506110023 | 48 | 345 | 2.0 | 6.0 | 0.00 | 0.00 | 0.00 | 81 | 1016.0 |
| 20260506105558 | 48 | 21 | 2.0 | 6.0 | 0.00 | 0.00 | 0.00 | 81 | 1015.9 |
| 20260506105021 | 48 | 5 | 2.0 | 8.0 | 0.00 | 0.00 | 0.00 | 81 | 1015.7 |
| 20260506104537 | 48 | 343 | 2.0 | 7.0 | 0.00 | 0.00 | 0.00 | 81 | 1015.6 |
| 20260506104054 | 48 | 360 | 2.0 | 6.0 | 0.00 | 0.00 | 0.00 | 81 | 1015.6 |
| 20260506103536 | 48 | 360 | 4.0 | 7.0 | 0.00 | 0.00 | 0.00 | 81 | 1015.6 |
| 20260506103056 | 48 | 6 | 5.0 | 7.0 | 0.00 | 0.00 | 0.00 | 81 | 1015.6 |
| 20260506102542 | 48 | 355 | 2.0 | 7.0 | 0.00 | 0.00 | 0.00 | 81 | 1015.4 |
| 20260506102055 | 48 | 360 | 2.0 | 8.0 | 0.00 | 0.00 | 0.00 | 81 | 1015.4 |
| 20260506101518 | 48 | 328 | 2.0 | 7.0 | 0.00 | 0.00 | 0.00 | 81 | 1015.2 |
| 20260506101043 | 48 | 345 | 5.0 | 7.0 | 0.00 | 0.00 | 0.00 | 81 | 1015.3 |
| 20260506100524 | 48 | 350 | 4.0 | 8.0 | 0.00 | 0.00 | 0.00 | 81 | 1015.3 |
| 20260506100043 | 48 | 355 | 4.0 | 8.0 | 0.00 | 0.00 | 0.00 | 80 | 1015.1 |
| 20260506095520 | 48 | 346 | 4.0 | 9.0 | 0.00 | 0.00 | 0.00 | 80 | 1015.1 |
| 20260506095044 | 48 | 43 | 5.0 | 9.0 | 0.00 | 0.00 | 0.00 | 80 | 1015.0 |
| 20260506094613 | 48 | 12 | 2.0 | 9.0 | 0.00 | 0.00 | 0.00 | 81 | 1014.8 |
| 20260506094038 | 48 | 4 | 4.0 | 7.0 | 0.00 | 0.00 | 0.00 | 81 | 1014.7 |
| 20260506093600 | 48 | 350 | 2.0 | 13.0 | 0.00 | 0.00 | 0.00 | 81 | 1014.6 |
| 20260506093043 | 48 | 350 | 3.0 | 13.0 | 0.00 | 0.00 | 0.00 | 81 | 1014.2 |
| 20260506092557 | 48 | 350 | 2.0 | 9.0 | 0.00 | 0.00 | 0.00 | 82 | 1014.0 |
| 20260506092501 | 48 | 355 | 3.0 | 9.0 | 0.00 | 0.00 | 0.00 | 82 | 1014.0 |
| 20260506092040 | 48 | 360 | 4.0 | 8.0 | 0.00 | 0.00 | 0.00 | 82 | 1014.0 |
| 20260506091555 | 48 | 360 | 4.0 | 8.0 | 0.00 | 0.00 | 0.00 | 82 | 1013.7 |
| 20260506091019 | 48 | 7 | 3.0 | 8.0 | 0.00 | 0.00 | 0.00 | 82 | 1013.6 |
| 20260506090553 | 48 | 360 | 3.0 | 7.0 | 0.00 | 0.00 | 0.00 | 82 | 1013.6 |
| 20260506090022 | 48 | 345 | 2.0 | 7.0 | 0.00 | 0.00 | 0.00 | 82 | 1013.6 |
| 20260506085553 | 48 | 355 | 4.0 | 7.0 | 0.00 | 0.00 | 0.00 | 82 | 1013.5 |
| 20260506085010 | 48 | 14 | 3.0 | 8.0 | 0.00 | 0.00 | 0.00 | 81 | 1013.3 |
| 20260506084536 | 48 | 17 | 3.0 | 8.0 | 0.00 | 0.00 | 0.00 | 80 | 1013.1 |
| 20260506084012 | 48 | 350 | 3.0 | 8.0 | 0.00 | 0.00 | 0.00 | 80 | 1013.1 |
| 20260506083534 | 48 | 343 | 4.0 | 8.0 | 0.00 | 0.00 | 0.00 | 78 | 1013.1 |
| 20260506083057 | 48 | 13 | 2.0 | 6.0 | 0.00 | 0.00 | 0.00 | 78 | 1013.3 |
| 20260506082532 | 48 | 47 | 1.0 | 8.0 | 0.00 | 0.00 | 0.00 | 78 | 1013.2 |
| 20260506082050 | 48 | 43 | 1.0 | 8.0 | 0.00 | 0.00 | 0.00 | 77 | 1013.0 |
| 20260506081534 | 48 | 31 | 1.0 | 5.0 | 0.00 | 0.00 | 0.00 | 77 | 1012.9 |
| 20260506081048 | 48 | 33 | 1.0 | 6.0 | 0.00 | 0.00 | 0.00 | 77 | 1012.8 |
| 20260506080508 | 48 | 33 | 1.0 | 6.0 | 0.00 | 0.00 | 0.00 | 76 | 1012.8 |
| 20260506073022 | 49 | 47 | 2.0 | 6.0 | 0.00 | 0.00 | 0.00 | 76 | 1012.5 |
| 20260506072545 | 49 | 25 | 1.0 | 5.0 | 0.00 | 0.00 | 0.00 | 76 | 1012.5 |
| 20260506072014 | 49 | 360 | 2.0 | 8.0 | 0.00 | 0.00 | 0.00 | 75 | 1012.6 |
| 20260506071545 | 49 | 111 | 1.0 | 8.0 | 0.00 | 0.00 | 0.00 | 75 | 1012.7 |
| 20260506071008 | 49 | 15 | 1.0 | 5.0 | 0.00 | 0.00 | 0.00 | 76 | 1012.9 |
| 20260506070530 | 49 | 16 | 1.0 | 5.0 | 0.00 | 0.00 | 0.00 | 75 | 1012.8 |
| 20260506062048 | 49 | 24 | 2.0 | 9.0 | 0.00 | 0.00 | 0.00 | 75 | 1012.6 |
| 20260506061522 | 49 | 41 | 1.0 | 7.0 | 0.00 | 0.00 | 0.00 | 74 | 1012.7 |
| 20260506061048 | 49 | 94 | 1.0 | 9.0 | 0.00 | 0.00 | 0.00 | 74 | 1012.7 |
| 20260506060512 | 49 | 355 | 2.0 | 9.0 | 0.00 | 0.00 | 0.00 | 74 | 1012.5 |